World > North America > United States > Ohio > Monroeville  

Monroeville, OH Hourly Weather Updates

Feedback E-mail the Weather

Quick Clicks

Monroeville, OH Weather Maps

°F °C°F °C
Monroeville Weather Map
UTC Time: 7/25/2024, 18:31
Your Time:

Monroeville, OH Regional Weather

Expires:202407251900;;283086
ASUS41 KCLE 251812
RWRCLE
OHIO REGIONAL WEATHER ROUNDUP
NATIONAL WEATHER SERVICE WILMINGTON, OH
200 PM EDT THU JUL 25 2024

NOTE: "FAIR" INDICATES FEW OR NO CLOUDS BELOW 12,000 FEET WITH NO
SIGNIFICANT WEATHER AND/OR OBSTRUCTIONS TO VISIBILITY.


OHZ009>014-019>023-028>033-038-089-251900-
   NORTHEAST OHIO
  
CITY           SKY/WX    TMP DP  RH WIND       PRES   REMARKS
CLE-HOPKINS    PTSUNNY   77  60  55 N13G21    30.18S                  
CLE-LAKEFRONT  CLOUDY    75  64  68 N14       30.19R                  
CUY CO. ARPT   PTSUNNY   75  61  60 NE8       30.21S                  
LORAIN-ELYRIA  CLOUDY    72  62  71 NE10      30.21R                  
ASHTABULA      FAIR      75  59  57 VRB5      30.19S                  
AKRON-CANTON   PTSUNNY   81  62  52 N16G23    30.17F                  
WOOSTER        FAIR      81  65  58 NE12      30.18S                  
MANSFIELD      PTSUNNY   77  63  61 NW18G26   30.19S                  
YOUNGSTOWN     PTSUNNY   77  61  57 NE3       30.18S                  
$$
 

SKY/WX - Weather  TMP - Temperature  DP - Dew Point  RH - Humidity
WIND - Wind Direction/Speed PRES - Barometric Pressure VSB - Visibility
WCI - Wind Chill Index E13G22 Wind - East Wind 13 mph/Gusts of 22 mph

Trending Headlines

Trending Entertainment Headlines

Monroeville Radar Loop

Use the map search tool if you want to place a location marker on the radar map...

Monroeville Quick Facts

National Two Day Weather Forecast


E-mail the Monroeville Weather Forecast

Voice your opinion or tell us about page issues...